Starlink 35058

operational
NORAD ID: 65394 Int'l Des: 2025-191 Owner: SPXS Country: US Constellation: starlink
LEOCIRCULARRETROGRADE

关于 Starlink 35058

正在加载描述...

实时位置

正在加载3D地球...

即将过境

高度历史

Altitude vs Time

uPlot chart will show altitude changes over time

两行轨道根数

1 65394U 25191R 25340.61751360 .00013691 00000-0 95091-3 0 9995
2 65394 97.6016 209.7695 0003133 82.6288 277.5294 15.05660077 16268
Epoch: Dec 6, 2025 • Age: 26 hours

当前状态

高度 553.3 km
速度 7.59 km/s
星下点 35.07°N, 64.78°E
发射日期 Aug 30, 2025
运行时间 0.2 years
类型 internet

技术详情

分类 Payload
质量 575.00 kg
干质量 530.00 kg
总质量 575.00 kg
长度 0.30 m
直径 4.10 m
跨度 29.00 m
形状 Box + pan
制造商 SPXS
平台类型 Starlink V2MO
阶段状态 In Orbit
所有者/国家 SPXS/US

大型星座

Loading constellations...